| time (UTC) | temp C | wind direction | speed KPH | gust KPH | rain 1hr cm | rain 24hr cm | rain mn cm | humidity % | barometer mb |
| 20260906101139 | 27 | 201 | 0.0 | 6.4 | 0.00 | 0.00 | 0.00 | 48 | 1009.8 |
| 20260906100641 | 27 | 202 | 4.8 | 6.4 | 0.00 | 0.00 | 0.00 | 48 | 1009.8 |
| 20260906100143 | 27 | 203 | 0.0 | 6.4 | 0.00 | 0.00 | 0.00 | 47 | 1009.8 |
| 20260906095642 | 27 | 203 | 0.0 | 6.4 | 0.00 | 0.00 | 0.00 | 47 | 1009.8 |
| 20260906095143 | 27 | 203 | 0.0 | 0.0 | 0.00 | 0.00 | 0.00 | 46 | 1009.8 |
| 20260906094645 | 27 | 203 | 0.0 | 6.4 | 0.00 | 0.00 | 0.00 | 46 | 1009.8 |
| 20260906094144 | 27 | 203 | 0.0 | 4.8 | 0.00 | 0.00 | 0.00 | 46 | 1009.8 |
| 20260906093646 | 27 | 203 | 0.0 | 0.0 | 0.00 | 0.00 | 0.00 | 45 | 1009.8 |
| 20260906093148 | 27 | 203 | 0.0 | 4.8 | 0.00 | 0.00 | 0.00 | 44 | 1009.8 |
| 20260906092646 | 27 | 203 | 0.0 | 4.8 | 0.00 | 0.00 | 0.00 | 44 | 1009.8 |
| 20260906092148 | 27 | 204 | 0.0 | 6.4 | 0.00 | 0.00 | 0.00 | 44 | 1009.8 |
| 20260906091650 | 27 | 217 | 0.0 | 6.4 | 0.00 | 0.00 | 0.00 | 44 | 1009.8 |
| 20260906091149 | 27 | 217 | 4.8 | 6.4 | 0.00 | 0.00 | 0.00 | 44 | 1009.8 |
| 20260906090650 | 27 | 217 | 0.0 | 8.0 | 0.00 | 0.00 | 0.00 | 44 | 1009.8 |
| 20260906090152 | 27 | 211 | 0.0 | 9.7 | 0.00 | 0.00 | 0.00 | 44 | 1009.8 |
| 20260906085651 | 27 | 194 | 4.8 | 6.4 | 0.00 | 0.00 | 0.00 | 43 | 1009.8 |
| 20260906085153 | 27 | 169 | 4.8 | 6.4 | 0.00 | 0.00 | 0.00 | 43 | 1009.8 |
| 20260906084655 | 27 | 188 | 4.8 | 8.0 | 0.00 | 0.00 | 0.00 | 43 | 1009.8 |
| 20260906084153 | 27 | 187 | 0.0 | 8.0 | 0.00 | 0.00 | 0.00 | 43 | 1009.8 |
| 20260906083655 | 27 | 189 | 4.8 | 6.4 | 0.00 | 0.00 | 0.00 | 42 | 1009.8 |
| 20260906083157 | 27 | 199 | 4.8 | 9.7 | 0.00 | 0.00 | 0.00 | 42 | 1009.8 |
| 20260906082656 | 27 | 169 | 6.4 | 9.7 | 0.00 | 0.00 | 0.00 | 42 | 1009.8 |
| 20260906082153 | 27 | 213 | 8.0 | 12.9 | 0.00 | 0.00 | 0.00 | 42 | 1009.8 |
| 20260906081654 | 28 | 217 | 9.7 | 11.3 | 0.00 | 0.00 | 0.00 | 41 | 1009.8 |
| 20260906081153 | 28 | 191 | 6.4 | 9.7 | 0.00 | 0.00 | 0.00 | 42 | 1009.8 |
| 20260906080655 | 28 | 220 | 0.0 | 9.7 | 0.00 | 0.00 | 0.00 | 42 | 1009.8 |
| 20260906080152 | 28 | 211 | 0.0 | 9.7 | 0.00 | 0.00 | 0.00 | 42 | 1009.8 |
| 20260906075645 | 28 | 216 | 6.4 | 11.3 | 0.00 | 0.00 | 0.00 | 42 | 1009.8 |
| 20260906075147 | 28 | 192 | 0.0 | 8.0 | 0.00 | 0.00 | 0.00 | 42 | 1009.8 |
| 20260906074649 | 28 | 181 | 4.8 | 6.4 | 0.00 | 0.00 | 0.00 | 42 | 1009.8 |
| 20260906074148 | 28 | 168 | 4.8 | 9.7 | 0.00 | 0.00 | 0.00 | 42 | 1009.8 |
| 20260906073650 | 28 | 189 | 4.8 | 9.7 | 0.00 | 0.00 | 0.00 | 42 | 1009.8 |
| 20260906073151 | 28 | 154 | 0.0 | 11.3 | 0.00 | 0.00 | 0.00 | 42 | 1009.8 |
| 20260906072650 | 28 | 190 | 6.4 | 11.3 | 0.00 | 0.00 | 0.00 | 42 | 1009.8 |
| 20260906072152 | 28 | 216 | 0.0 | 11.3 | 0.00 | 0.00 | 0.00 | 41 | 1009.8 |
| 20260906071654 | 28 | 156 | 6.4 | 9.7 | 0.00 | 0.00 | 0.00 | 41 | 1009.8 |
| 20260906071153 | 28 | 159 | 0.0 | 11.3 | 0.00 | 0.00 | 0.00 | 41 | 1009.8 |
| 20260906070654 | 28 | 175 | 6.4 | 11.3 | 0.00 | 0.00 | 0.00 | 40 | 1009.8 |
| 20260906070156 | 28 | 198 | 4.8 | 12.9 | 0.00 | 0.00 | 0.00 | 40 | 1009.8 |
| 20260906065655 | 28 | 170 | 6.4 | 11.3 | 0.00 | 0.00 | 0.00 | 40 | 1009.8 |
| 20260906065157 | 28 | 137 | 8.0 | 11.3 | 0.00 | 0.00 | 0.00 | 39 | 1009.8 |
| 20260906064658 | 28 | 210 | 6.4 | 11.3 | 0.00 | 0.00 | 0.00 | 39 | 1010.8 |
| 20260906064157 | 28 | 158 | 6.4 | 11.3 | 0.00 | 0.00 | 0.00 | 39 | 1010.8 |
| 20260906063659 | 28 | 172 | 6.4 | 11.3 | 0.00 | 0.00 | 0.00 | 39 | 1010.8 |
| 20260906063156 | 28 | 165 | 4.8 | 11.3 | 0.00 | 0.00 | 0.00 | 38 | 1010.8 |
| 20260906062654 | 28 | 186 | 6.4 | 9.7 | 0.00 | 0.00 | 0.00 | 38 | 1010.8 |
| 20260906062151 | 28 | 223 | 4.8 | 11.3 | 0.00 | 0.00 | 0.00 | 38 | 1010.8 |
| 20260906061653 | 29 | 187 | 6.4 | 9.7 | 0.00 | 0.00 | 0.00 | 37 | 1010.8 |
| 20260906061152 | 29 | 207 | 6.4 | 14.5 | 0.00 | 0.00 | 0.00 | 37 | 1010.8 |
| 20260906060654 | 29 | 154 | 6.4 | 8.0 | 0.00 | 0.00 | 0.00 | 36 | 1010.8 |
| 20260906060151 | 29 | 177 | 0.0 | 11.3 | 0.00 | 0.00 | 0.00 | 36 | 1010.8 |
| 20260906055649 | 29 | 139 | 6.4 | 9.7 | 0.00 | 0.00 | 0.00 | 35 | 1010.8 |
| 20260906055151 | 29 | 189 | 6.4 | 8.0 | 0.00 | 0.00 | 0.00 | 35 | 1010.8 |
| 20260906054653 | 29 | 190 | 4.8 | 8.0 | 0.00 | 0.00 | 0.00 | 34 | 1010.8 |
| 20260906054152 | 29 | 210 | 0.0 | 11.3 | 0.00 | 0.00 | 0.00 | 34 | 1010.8 |
| 20260906053648 | 29 | 212 | 6.4 | 12.9 | 0.00 | 0.00 | 0.00 | 34 | 1010.8 |
| 20260906053150 | 29 | 226 | 6.4 | 9.7 | 0.00 | 0.00 | 0.00 | 34 | 1010.8 |
| 20260906052649 | 29 | 194 | 0.0 | 6.4 | 0.00 | 0.00 | 0.00 | 34 | 1010.8 |
| 20260906052151 | 29 | 192 | 4.8 | 8.0 | 0.00 | 0.00 | 0.00 | 34 | 1010.8 |
| 20260906051653 | 30 | 177 | 6.4 | 11.3 | 0.00 | 0.00 | 0.00 | 34 | 1010.8 |
| 20260906051151 | 29 | 146 | 6.4 | 14.5 | 0.00 | 0.00 | 0.00 | 34 | 1010.8 |
| 20260906050653 | 30 | 195 | 4.8 | 11.3 | 0.00 | 0.00 | 0.00 | 33 | 1010.8 |
| 20260906050150 | 30 | 193 | 6.4 | 12.9 | 0.00 | 0.00 | 0.00 | 33 | 1010.8 |
| 20260906045644 | 30 | 188 | 4.8 | 9.7 | 0.00 | 0.00 | 0.00 | 33 | 1010.8 |
| 20260906045146 | 30 | 132 | 6.4 | 12.9 | 0.00 | 0.00 | 0.00 | 33 | 1010.8 |
| 20260906044647 | 30 | 133 | 6.4 | 11.3 | 0.00 | 0.00 | 0.00 | 33 | 1009.8 |
| 20260906044142 | 30 | 211 | 8.0 | 14.5 | 0.00 | 0.00 | 0.00 | 33 | 1009.8 |
| 20260906043643 | 30 | 190 | 4.8 | 9.7 | 0.00 | 0.00 | 0.00 | 33 | 1009.8 |
| 20260906043145 | 30 | 180 | 4.8 | 11.3 | 0.00 | 0.00 | 0.00 | 33 | 1009.8 |
| 20260906042644 | 30 | 133 | 6.4 | 9.7 | 0.00 | 0.00 | 0.00 | 33 | 1009.8 |
| 20260906042146 | 30 | 175 | 4.8 | 9.7 | 0.00 | 0.00 | 0.00 | 33 | 1009.8 |
| 20260906041643 | 30 | 190 | 4.8 | 9.7 | 0.00 | 0.00 | 0.00 | 33 | 1009.8 |
| 20260906041142 | 30 | 148 | 6.4 | 14.5 | 0.00 | 0.00 | 0.00 | 33 | 1009.8 |
| 20260906040644 | 30 | 124 | 8.0 | 14.5 | 0.00 | 0.00 | 0.00 | 33 | 1009.8 |
| 20260906040146 | 30 | 126 | 6.4 | 16.1 | 0.00 | 0.00 | 0.00 | 33 | 1009.8 |
| 20260906035644 | 30 | 135 | 11.3 | 16.1 | 0.00 | 0.00 | 0.00 | 32 | 1009.8 |
| 20260906035146 | 30 | 128 | 9.7 | 14.5 | 0.00 | 0.00 | 0.00 | 32 | 1009.8 |
| 20260906034648 | 30 | 136 | 9.7 | 14.5 | 0.00 | 0.00 | 0.00 | 32 | 1009.8 |
| 20260906034147 | 30 | 127 | 9.7 | 17.7 | 0.00 | 0.00 | 0.00 | 32 | 1009.8 |
| 20260906033648 | 30 | 102 | 11.3 | 20.9 | 0.00 | 0.00 | 0.00 | 32 | 1009.8 |
| 20260906033150 | 30 | 120 | 12.9 | 16.1 | 0.00 | 0.00 | 0.00 | 31 | 1009.8 |
| 20260906032649 | 30 | 131 | 11.3 | 16.1 | 0.00 | 0.00 | 0.00 | 31 | 1009.8 |
| 20260906032151 | 30 | 143 | 11.3 | 17.7 | 0.00 | 0.00 | 0.00 | 31 | 1009.8 |
| 20260906031653 | 30 | 136 | 11.3 | 16.1 | 0.00 | 0.00 | 0.00 | 30 | 1009.8 |
| 20260906031151 | 30 | 146 | 12.9 | 17.7 | 0.00 | 0.00 | 0.00 | 30 | 1009.8 |
| 20260906030653 | 31 | 125 | 14.5 | 16.1 | 0.00 | 0.00 | 0.00 | 30 | 1009.8 |
| 20260906030155 | 31 | 123 | 11.3 | 19.3 | 0.00 | 0.00 | 0.00 | 30 | 1009.8 |
| 20260906025654 | 31 | 125 | 14.5 | 19.3 | 0.00 | 0.00 | 0.00 | 30 | 1009.8 |
| 20260906025155 | 31 | 134 | 12.9 | 17.7 | 0.00 | 0.00 | 0.00 | 29 | 1009.8 |
| 20260906024652 | 31 | 126 | 11.3 | 19.3 | 0.00 | 0.00 | 0.00 | 29 | 1009.8 |
| 20260906024151 | 31 | 120 | 9.7 | 19.3 | 0.00 | 0.00 | 0.00 | 29 | 1009.8 |
| 20260906023653 | 31 | 96 | 14.5 | 16.1 | 0.00 | 0.00 | 0.00 | 29 | 1009.8 |
| 20260906023155 | 31 | 105 | 11.3 | 19.3 | 0.00 | 0.00 | 0.00 | 27 | 1009.8 |
| 20260906022648 | 31 | 113 | 12.9 | 16.1 | 0.00 | 0.00 | 0.00 | 27 | 1009.8 |
| 20260906022150 | 31 | 130 | 11.3 | 17.7 | 0.00 | 0.00 | 0.00 | 27 | 1009.8 |
| 20260906021652 | 31 | 129 | 12.9 | 24.1 | 0.00 | 0.00 | 0.00 | 26 | 1009.8 |
| 20260906021151 | 31 | 111 | 11.3 | 19.3 | 0.00 | 0.00 | 0.00 | 25 | 1009.8 |
| 20260906020652 | 32 | 119 | 14.5 | 20.9 | 0.00 | 0.00 | 0.00 | 23 | 1009.8 |
| 20260906020154 | 32 | 117 | 12.9 | 22.5 | 0.00 | 0.00 | 0.00 | 22 | 1008.8 |
| 20260906015653 | 32 | 137 | 14.5 | 19.3 | 0.00 | 0.00 | 0.00 | 21 | 1008.8 |
| 20260906015155 | 32 | 116 | 16.1 | 19.3 | 0.00 | 0.00 | 0.00 | 21 | 1008.8 |
| 20260906014657 | 32 | 125 | 16.1 | 17.7 | 0.00 | 0.00 | 0.00 | 20 | 1008.8 |
| 20260906014155 | 32 | 114 | 14.5 | 24.1 | 0.00 | 0.00 | 0.00 | 20 | 1008.8 |
| 20260906013657 | 32 | 133 | 17.7 | 27.4 | 0.00 | 0.00 | 0.00 | 19 | 1008.8 |
| 20260906013159 | 32 | 118 | 20.9 | 30.6 | 0.00 | 0.00 | 0.00 | 19 | 1008.8 |
| 20260906012658 | 33 | 127 | 17.7 | 33.8 | 0.00 | 0.00 | 0.00 | 18 | 1008.8 |
| 20260906012159 | 33 | 146 | 25.7 | 30.6 | 0.00 | 0.00 | 0.00 | 17 | 1008.8 |
| 20260906011651 | 34 | 128 | 16.1 | 16.1 | 0.00 | 0.00 | 0.00 | 16 | 1008.8 |
| 20260906011150 | 35 | 121 | 12.9 | 16.1 | 0.00 | 0.00 | 0.00 | 16 | 1008.8 |
| 20260906010652 | 35 | 107 | 8.0 | 20.9 | 0.00 | 0.00 | 0.00 | 16 | 1008.8 |
| 20260906010153 | 35 | 112 | 16.1 | 19.3 | 0.00 | 0.00 | 0.00 | 16 | 1008.8 |
| 20260906005652 | 35 | 105 | 14.5 | 19.3 | 0.00 | 0.00 | 0.00 | 16 | 1008.8 |
| 20260906005154 | 35 | 124 | 11.3 | 19.3 | 0.00 | 0.00 | 0.00 | 14 | 1008.8 |
| 20260906004650 | 35 | 122 | 11.3 | 19.3 | 0.00 | 0.00 | 0.00 | 13 | 1008.8 |
| 20260906004147 | 35 | 114 | 16.1 | 16.1 | 0.00 | 0.00 | 0.00 | 13 | 1008.8 |
| 20260906003649 | 35 | 123 | 11.3 | 17.7 | 0.00 | 0.00 | 0.00 | 13 | 1008.8 |
| 20260906003150 | 35 | 116 | 11.3 | 16.1 | 0.00 | 0.00 | 0.00 | 13 | 1007.8 |
| 20260906002649 | 35 | 121 | 9.7 | 16.1 | 0.00 | 0.00 | 0.00 | 13 | 1007.8 |
| 20260906002151 | 36 | 139 | 11.3 | 12.9 | 0.00 | 0.00 | 0.00 | 13 | 1007.8 |
| 20260906001653 | 35 | 119 | 11.3 | 16.1 | 0.00 | 0.00 | 0.00 | 13 | 1007.8 |
| 20260906001151 | 36 | 113 | 12.9 | 17.7 | 0.00 | 0.00 | 0.00 | 13 | 1007.8 |
| 20260906000648 | 36 | 112 | 12.9 | 19.3 | 0.00 | 0.00 | 0.00 | 13 | 1007.8 |
| 20260906000150 | 36 | 128 | 14.5 | 17.7 | 0.00 | 0.00 | 0.00 | 13 | 1007.8 |
| 20260905235649 | 36 | 98 | 11.3 | 12.9 | 0.00 | 0.00 | 0.00 | 13 | 1007.8 |
| 20260905235150 | 36 | 127 | 8.0 | 16.1 | 0.00 | 0.00 | 0.00 | 13 | 1007.8 |
| 20260905234643 | 36 | 116 | 11.3 | 14.5 | 0.00 | 0.00 | 0.00 | 13 | 1007.8 |
| 20260905234141 | 36 | 124 | 6.4 | 12.9 | 0.00 | 0.00 | 0.00 | 13 | 1007.8 |
| 20260905233643 | 36 | 124 | 8.0 | 9.7 | 0.00 | 0.00 | 0.00 | 13 | 1007.8 |
| 20260905233145 | 36 | 133 | 6.4 | 9.7 | 0.00 | 0.00 | 0.00 | 13 | 1007.8 |
| 20260905232644 | 36 | 193 | 6.4 | 11.3 | 0.00 | 0.00 | 0.00 | 13 | 1007.8 |
| 20260905232146 | 36 | 132 | 8.0 | 17.7 | 0.00 | 0.00 | 0.00 | 13 | 1007.8 |
| 20260905231647 | 36 | 133 | 14.5 | 11.3 | 0.00 | 0.00 | 0.00 | 13 | 1007.8 |
| 20260905231146 | 36 | 164 | 8.0 | 12.9 | 0.00 | 0.00 | 0.00 | 13 | 1007.8 |
| 20260905230648 | 36 | 143 | 0.0 | 9.7 | 0.00 | 0.00 | 0.00 | 13 | 1007.8 |
| 20260905230150 | 36 | 128 | 4.8 | 12.9 | 0.00 | 0.00 | 0.00 | 13 | 1007.8 |
| 20260905225648 | 36 | 119 | 9.7 | 12.9 | 0.00 | 0.00 | 0.00 | 13 | 1007.8 |
| 20260905225150 | 36 | 113 | 9.7 | 12.9 | 0.00 | 0.00 | 0.00 | 13 | 1007.8 |
| 20260905224652 | 36 | 68 | 8.0 | 16.1 | 0.00 | 0.00 | 0.00 | 13 | 1007.8 |
| 20260905224151 | 36 | 97 | 6.4 | 16.1 | 0.00 | 0.00 | 0.00 | 13 | 1007.8 |
| 20260905223652 | 36 | 130 | 9.7 | 11.3 | 0.00 | 0.00 | 0.00 | 13 | 1007.8 |
| 20260905223154 | 36 | 117 | 0.0 | 12.9 | 0.00 | 0.00 | 0.00 | 13 | 1007.8 |
| 20260905222653 | 36 | 119 | 9.7 | 14.5 | 0.00 | 0.00 | 0.00 | 13 | 1007.8 |
| 20260905222155 | 36 | 135 | 6.4 | 12.9 | 0.00 | 0.00 | 0.00 | 13 | 1007.8 |
| 20260905221657 | 36 | 140 | 8.0 | 16.1 | 0.00 | 0.00 | 0.00 | 13 | 1007.8 |
| 20260905221155 | 36 | 140 | 11.3 | 16.1 | 0.00 | 0.00 | 0.00 | 13 | 1007.8 |
| 20260905220657 | 36 | 118 | 9.7 | 8.0 | 0.00 | 0.00 | 0.00 | 13 | 1007.8 |
| 20260905220159 | 36 | 347 | 6.4 | 11.3 | 0.00 | 0.00 | 0.00 | 13 | 1007.8 |
| 20260905215639 | 36 | 115 | 11.3 | 14.5 | 0.00 | 0.00 | 0.00 | 13 | 1007.8 |
| 20260905215140 | 36 | 109 | 11.3 | 16.1 | 0.00 | 0.00 | 0.00 | 13 | 1007.8 |
| 20260905214642 | 36 | 132 | 11.3 | 16.1 | 0.00 | 0.00 | 0.00 | 13 | 1008.8 |
| 20260905214140 | 36 | 100 | 8.0 | 14.5 | 0.00 | 0.00 | 0.00 | 13 | 1008.8 |
| 20260905213642 | 36 | 135 | 4.8 | 11.3 | 0.00 | 0.00 | 0.00 | 13 | 1008.8 |
| 20260905213144 | 36 | 41 | 6.4 | 9.7 | 0.00 | 0.00 | 0.00 | 13 | 1008.8 |
| 20260905212643 | 36 | 88 | 4.8 | 11.3 | 0.00 | 0.00 | 0.00 | 13 | 1008.8 |
| 20260905212145 | 37 | 307 | 6.4 | 14.5 | 0.00 | 0.00 | 0.00 | 13 | 1008.8 |
| 20260905211646 | 37 | 124 | 0.0 | 11.3 | 0.00 | 0.00 | 0.00 | 13 | 1008.8 |
| 20260905211145 | 36 | 316 | 6.4 | 8.0 | 0.00 | 0.00 | 0.00 | 13 | 1008.8 |
| 20260905210647 | 35 | 313 | 6.4 | 9.7 | 0.00 | 0.00 | 0.00 | 13 | 1008.8 |
| 20260905210149 | 36 | 284 | 0.0 | 6.4 | 0.00 | 0.00 | 0.00 | 13 | 1008.8 |
| 20260905205647 | 35 | 284 | 4.8 | 9.7 | 0.00 | 0.00 | 0.00 | 13 | 1008.8 |
| 20260905205149 | 35 | 127 | 0.0 | 8.0 | 0.00 | 0.00 | 0.00 | 13 | 1008.8 |
| 20260905204650 | 35 | 129 | 0.0 | 11.3 | 0.00 | 0.00 | 0.00 | 13 | 1008.8 |
| 20260905204148 | 35 | 117 | 9.7 | 12.9 | 0.00 | 0.00 | 0.00 | 13 | 1008.8 |
| 20260905203650 | 35 | 118 | 9.7 | 12.9 | 0.00 | 0.00 | 0.00 | 16 | 1008.8 |
| 20260905203152 | 35 | 112 | 6.4 | 12.9 | 0.00 | 0.00 | 0.00 | 16 | 1009.8 |
| 20260905202650 | 35 | 128 | 0.0 | 6.4 | 0.00 | 0.00 | 0.00 | 16 | 1009.8 |
| 20260905202151 | 35 | 128 | 0.0 | 11.3 | 0.00 | 0.00 | 0.00 | 16 | 1009.8 |
| 20260905201653 | 35 | 139 | 6.4 | 11.3 | 0.00 | 0.00 | 0.00 | 16 | 1009.8 |
| 20260905201151 | 36 | 150 | 6.4 | 11.3 | 0.00 | 0.00 | 0.00 | 16 | 1009.8 |
| 20260905200653 | 36 | 301 | 6.4 | 11.3 | 0.00 | 0.00 | 0.00 | 16 | 1009.8 |
| 20260905200155 | 36 | 94 | 0.0 | 8.0 | 0.00 | 0.00 | 0.00 | 16 | 1009.8 |
| 20260905195649 | 35 | 105 | 0.0 | 9.7 | 0.00 | 0.00 | 0.00 | 16 | 1009.8 |
| 20260905195146 | 36 | 243 | 4.8 | 14.5 | 0.00 | 0.00 | 0.00 | 16 | 1009.8 |
| 20260905194638 | 36 | 110 | 6.4 | 9.7 | 0.00 | 0.00 | 0.00 | 16 | 1009.8 |
| 20260905194137 | 36 | 136 | 6.4 | 12.9 | 0.00 | 0.00 | 0.00 | 16 | 1009.8 |
| 20260905193634 | 36 | 141 | 9.7 | 14.5 | 0.00 | 0.00 | 0.00 | 16 | 1009.8 |
| 20260905193136 | 35 | 126 | 4.8 | 12.9 | 0.00 | 0.00 | 0.00 | 16 | 1009.8 |
| 20260905192635 | 35 | 117 | 9.7 | 14.5 | 0.00 | 0.00 | 0.00 | 16 | 1009.8 |
| 20260905192136 | 35 | 108 | 9.7 | 19.3 | 0.00 | 0.00 | 0.00 | 16 | 1009.8 |
| 20260905191638 | 35 | 132 | 9.7 | 16.1 | 0.00 | 0.00 | 0.00 | 16 | 1010.8 |
| 20260905191137 | 35 | 127 | 0.0 | 11.3 | 0.00 | 0.00 | 0.00 | 16 | 1010.8 |
| 20260905190639 | 36 | 179 | 0.0 | 8.0 | 0.00 | 0.00 | 0.00 | 16 | 1010.8 |
| 20260905190141 | 35 | 156 | 6.4 | 9.7 | 0.00 | 0.00 | 0.00 | 16 | 1010.8 |
| 20260905185639 | 35 | 124 | 6.4 | 14.5 | 0.00 | 0.00 | 0.00 | 16 | 1010.8 |
| 20260905185141 | 35 | 144 | 9.7 | 16.1 | 0.00 | 0.00 | 0.00 | 16 | 1010.8 |
| 20260905184643 | 36 | 172 | 0.0 | 9.7 | 0.00 | 0.00 | 0.00 | 16 | 1010.8 |
| 20260905184142 | 36 | 136 | 4.8 | 11.3 | 0.00 | 0.00 | 0.00 | 16 | 1010.8 |
| 20260905183643 | 35 | 148 | 4.8 | 12.9 | 0.00 | 0.00 | 0.00 | 16 | 1010.8 |
| 20260905183141 | 35 | 163 | 6.4 | 12.9 | 0.00 | 0.00 | 0.00 | 16 | 1010.8 |
| 20260905182640 | 35 | 207 | 6.4 | 11.3 | 0.00 | 0.00 | 0.00 | 16 | 1010.8 |
| 20260905182141 | 35 | 220 | 8.0 | 12.9 | 0.00 | 0.00 | 0.00 | 16 | 1010.8 |
| 20260905181639 | 35 | 202 | 6.4 | 11.3 | 0.00 | 0.00 | 0.00 | 16 | 1011.8 |
| 20260905181137 | 35 | 141 | 6.4 | 11.3 | 0.00 | 0.00 | 0.00 | 16 | 1011.8 |
| 20260905180639 | 34 | 239 | 4.8 | 12.9 | 0.00 | 0.00 | 0.00 | 16 | 1011.8 |
| 20260905180141 | 33 | 116 | 8.0 | 9.7 | 0.00 | 0.00 | 0.00 | 17 | 1011.8 |
| 20260905175640 | 34 | 111 | 4.8 | 12.9 | 0.00 | 0.00 | 0.00 | 17 | 1011.8 |
| 20260905175137 | 33 | 108 | 12.9 | 17.7 | 0.00 | 0.00 | 0.00 | 17 | 1011.8 |
| 20260905174639 | 34 | 190 | 8.0 | 16.1 | 0.00 | 0.00 | 0.00 | 17 | 1011.8 |
| 20260905174137 | 34 | 131 | 11.3 | 16.1 | 0.00 | 0.00 | 0.00 | 17 | 1011.8 |
| 20260905173639 | 34 | 267 | 4.8 | 11.3 | 0.00 | 0.00 | 0.00 | 17 | 1011.8 |
| 20260905173141 | 34 | 214 | 8.0 | 14.5 | 0.00 | 0.00 | 0.00 | 18 | 1011.8 |
| 20260905172634 | 33 | 211 | 11.3 | 14.5 | 0.00 | 0.00 | 0.00 | 18 | 1011.8 |
| 20260905172132 | 33 | 203 | 6.4 | 9.7 | 0.00 | 0.00 | 0.00 | 18 | 1011.8 |
| 20260905171634 | 33 | 216 | 4.8 | 16.1 | 0.00 | 0.00 | 0.00 | 18 | 1011.8 |
| 20260905171132 | 33 | 229 | 6.4 | 16.1 | 0.00 | 0.00 | 0.00 | 18 | 1011.8 |
| 20260905170634 | 33 | 193 | 6.4 | 9.7 | 0.00 | 0.00 | 0.00 | 18 | 1011.8 |
| 20260905170131 | 33 | 223 | 0.0 | 9.7 | 0.00 | 0.00 | 0.00 | 18 | 1011.8 |
| 20260905165630 | 33 | 92 | 6.4 | 11.3 | 0.00 | 0.00 | 0.00 | 18 | 1011.8 |
| 20260905165132 | 33 | 200 | 6.4 | 9.7 | 0.00 | 0.00 | 0.00 | 18 | 1011.8 |
| 20260905164633 | 33 | 108 | 0.0 | 11.3 | 0.00 | 0.00 | 0.00 | 19 | 1012.8 |
| 20260905164132 | 32 | 170 | 4.8 | 12.9 | 0.00 | 0.00 | 0.00 | 19 | 1012.8 |
| 20260905163634 | 32 | 134 | 8.0 | 16.1 | 0.00 | 0.00 | 0.00 | 19 | 1012.8 |
| 20260905163136 | 33 | 193 | 6.4 | 8.0 | 0.00 | 0.00 | 0.00 | 18 | 1012.8 |
| 20260905162634 | 33 | 249 | 4.8 | 6.4 | 0.00 | 0.00 | 0.00 | 20 | 1012.8 |
| 20260905162136 | 33 | 249 | 4.8 | 11.3 | 0.00 | 0.00 | 0.00 | 21 | 1012.8 |
| 20260905161638 | 32 | 305 | 6.4 | 9.7 | 0.00 | 0.00 | 0.00 | 21 | 1012.8 |
| 20260905161137 | 32 | 170 | 4.8 | 8.0 | 0.00 | 0.00 | 0.00 | 22 | 1012.8 |
| 20260905160629 | 32 | 119 | 0.0 | 6.4 | 0.00 | 0.00 | 0.00 | 22 | 1012.8 |
| 20260905160131 | 32 | 205 | 6.4 | 9.7 | 0.00 | 0.00 | 0.00 | 22 | 1011.8 |
| 20260905155629 | 32 | 123 | 6.4 | 11.3 | 0.00 | 0.00 | 0.00 | 24 | 1011.8 |
| 20260905155131 | 31 | 283 | 8.0 | 11.3 | 0.00 | 0.00 | 0.00 | 24 | 1011.8 |
| 20260905154633 | 31 | 294 | 6.4 | 9.7 | 0.00 | 0.00 | 0.00 | 24 | 1012.8 |
| 20260905154132 | 31 | 287 | 4.8 | 12.9 | 0.00 | 0.00 | 0.00 | 26 | 1012.8 |
| 20260905153634 | 31 | 275 | 4.8 | 11.3 | 0.00 | 0.00 | 0.00 | 28 | 1012.8 |
| 20260905153135 | 31 | 214 | 6.4 | 9.7 | 0.00 | 0.00 | 0.00 | 28 | 1012.8 |
| 20260905152634 | 31 | 302 | 4.8 | 16.1 | 0.00 | 0.00 | 0.00 | 28 | 1012.8 |
| 20260905152136 | 30 | 290 | 0.0 | 11.3 | 0.00 | 0.00 | 0.00 | 29 | 1012.8 |
| 20260905151636 | 30 | 295 | 6.4 | 9.7 | 0.00 | 0.00 | 0.00 | 29 | 1011.8 |
| 20260905151132 | 30 | 281 | 6.4 | 11.3 | 0.00 | 0.00 | 0.00 | 30 | 1011.8 |
| 20260905150633 | 30 | 115 | 6.4 | 12.9 | 0.00 | 0.00 | 0.00 | 32 | 1011.8 |
| 20260905150134 | 29 | 208 | 6.4 | 11.3 | 0.00 | 0.00 | 0.00 | 35 | 1011.8 |
| 20260905145633 | 29 | 162 | 4.8 | 11.3 | 0.00 | 0.00 | 0.00 | 36 | 1011.8 |
| 20260905145135 | 28 | 217 | 8.0 | 11.3 | 0.00 | 0.00 | 0.00 | 39 | 1011.8 |
| 20260905144637 | 28 | 200 | 4.8 | 11.3 | 0.00 | 0.00 | 0.00 | 42 | 1012.8 |
| 20260905144135 | 28 | 221 | 9.7 | 11.3 | 0.00 | 0.00 | 0.00 | 42 | 1012.8 |
| 20260905143637 | 28 | 231 | 4.8 | 11.3 | 0.00 | 0.00 | 0.00 | 43 | 1012.8 |
| 20260905143139 | 28 | 195 | 6.4 | 11.3 | 0.00 | 0.00 | 0.00 | 44 | 1012.8 |
| 20260905142638 | 28 | 209 | 8.0 | 12.9 | 0.00 | 0.00 | 0.00 | 44 | 1012.8 |
| 20260905142140 | 28 | 205 | 6.4 | 11.3 | 0.00 | 0.00 | 0.00 | 45 | 1012.8 |
| 20260905141641 | 28 | 186 | 4.8 | 6.4 | 0.00 | 0.00 | 0.00 | 45 | 1011.8 |
| 20260905141140 | 28 | 307 | 4.8 | 9.7 | 0.00 | 0.00 | 0.00 | 46 | 1011.8 |
| 20260905140642 | 28 | 324 | 4.8 | 8.0 | 0.00 | 0.00 | 0.00 | 46 | 1011.8 |
| 20260905140144 | 28 | 291 | 4.8 | 9.7 | 0.00 | 0.00 | 0.00 | 47 | 1011.8 |
| 20260905135642 | 27 | 233 | 0.0 | 9.7 | 0.00 | 0.00 | 0.00 | 49 | 1011.8 |
| 20260905135125 | 27 | 207 | 6.4 | 11.3 | 0.00 | 0.00 | 0.00 | 50 | 1011.8 |
| 20260905134627 | 27 | 227 | 6.4 | 9.7 | 0.00 | 0.00 | 0.00 | 48 | 1011.8 |
| 20260905134126 | 27 | 239 | 4.8 | 6.4 | 0.00 | 0.00 | 0.00 | 48 | 1011.8 |
| 20260905133628 | 27 | 226 | 0.0 | 6.4 | 0.00 | 0.00 | 0.00 | 49 | 1011.8 |
| 20260905133019 | 27 | 233 | 4.8 | 8.0 | 0.00 | 0.00 | 0.00 | 52 | 1011.8 |
| 20260905132518 | 27 | 232 | 0.0 | 9.7 | 0.00 | 0.00 | 0.00 | 52 | 1011.8 |
| 20260905132019 | 27 | 225 | 6.4 | 11.3 | 0.00 | 0.00 | 0.00 | 54 | 1011.8 |
| 20260905131521 | 27 | 229 | 8.0 | 8.0 | 0.00 | 0.00 | 0.00 | 54 | 1011.8 |
| 20260905131020 | 27 | 262 | 4.8 | 8.0 | 0.00 | 0.00 | 0.00 | 55 | 1011.8 |
| 20260905130522 | 27 | 229 | 0.0 | 8.0 | 0.00 | 0.00 | 0.00 | 57 | 1011.8 |
| 20260905130024 | 26 | 231 | 0.0 | 6.4 | 0.00 | 0.00 | 0.00 | 58 | 1011.8 |
| 20260905125522 | 26 | 194 | 4.8 | 6.4 | 0.00 | 0.00 | 0.00 | 59 | 1011.8 |
| 20260905125024 | 26 | 194 | 0.0 | 6.4 | 0.00 | 0.00 | 0.00 | 60 | 1011.8 |
| 20260905124526 | 26 | 195 | 0.0 | 8.0 | 0.00 | 0.00 | 0.00 | 61 | 1010.8 |
| 20260905124025 | 26 | 196 | 0.0 | 6.4 | 0.00 | 0.00 | 0.00 | 61 | 1010.8 |
| 20260905123526 | 26 | 192 | 4.8 | 6.4 | 0.00 | 0.00 | 0.00 | 61 | 1010.8 |
| 20260905123018 | 26 | 195 | 0.0 | 8.0 | 0.00 | 0.00 | 0.00 | 61 | 1010.8 |
| 20260905122517 | 26 | 193 | 4.8 | 6.4 | 0.00 | 0.00 | 0.00 | 62 | 1010.8 |
| 20260905121950 | 26 | 189 | 4.8 | 6.4 | 0.00 | 0.00 | 0.00 | 62 | 1010.8 |
| 20260905121715 | 26 | 188 | 0.0 | 8.0 | 0.00 | 0.00 | 0.00 | 62 | 1010.8 |
| 20260905121452 | 26 | 188 | 0.0 | 8.0 | 0.00 | 0.00 | 0.00 | 62 | 1010.8 |
| 20260905120951 | 26 | 188 | 0.0 | 11.3 | 0.00 | 0.00 | 0.00 | 61 | 1010.8 |
| 20260905120452 | 26 | 151 | 0.0 | 8.0 | 0.00 | 0.00 | 0.00 | 61 | 1010.8 |
| 20260905115954 | 26 | 209 | 4.8 | 9.7 | 0.00 | 0.00 | 0.00 | 61 | 1010.8 |
| 20260905115453 | 26 | 209 | 4.8 | 8.0 | 0.00 | 0.00 | 0.00 | 61 | 1010.8 |
| 20260905114955 | 26 | 199 | 4.8 | 9.7 | 0.00 | 0.00 | 0.00 | 61 | 1010.8 |
| 20260905114457 | 26 | 199 | 4.8 | 8.0 | 0.00 | 0.00 | 0.00 | 61 | 1010.8 |
| 20260905113955 | 26 | 196 | 4.8 | 9.7 | 0.00 | 0.00 | 0.00 | 60 | 1010.8 |
| 20260905113452 | 26 | 205 | 6.4 | 11.3 | 0.00 | 0.00 | 0.00 | 61 | 1010.8 |
| 20260905112954 | 26 | 187 | 4.8 | 11.3 | 0.00 | 0.00 | 0.00 | 61 | 1010.8 |
| 20260905112448 | 26 | 201 | 6.4 | 11.3 | 0.00 | 0.00 | 0.00 | 60 | 1010.8 |
| 20260905111946 | 26 | 206 | 8.0 | 9.7 | 0.00 | 0.00 | 0.00 | 59 | 1010.8 |
| 20260905111447 | 26 | 195 | 6.4 | 8.0 | 0.00 | 0.00 | 0.00 | 58 | 1010.8 |
| 20260905110946 | 26 | 182 | 6.4 | 6.4 | 0.00 | 0.00 | 0.00 | 57 | 1010.8 |
| 20260905110448 | 26 | 214 | 4.8 | 6.4 | 0.00 | 0.00 | 0.00 | 58 | 1010.8 |
| 20260905105950 | 26 | 216 | 0.0 | 6.4 | 0.00 | 0.00 | 0.00 | 58 | 1010.8 |
| 20260905105448 | 26 | 216 | 0.0 | 6.4 | 0.00 | 0.00 | 0.00 | 58 | 1010.8 |
| 20260905104950 | 26 | 215 | 0.0 | 6.4 | 0.00 | 0.00 | 0.00 | 58 | 1010.8 |
| 20260905104452 | 26 | 216 | 0.0 | 8.0 | 0.00 | 0.00 | 0.00 | 59 | 1010.8 |
| 20260905103951 | 26 | 216 | 4.8 | 9.7 | 0.00 | 0.00 | 0.00 | 58 | 1010.8 |
| 20260905103453 | 26 | 217 | 4.8 | 9.7 | 0.00 | 0.00 | 0.00 | 57 | 1010.8 |
| 20260905102954 | 26 | 221 | 4.8 | 11.3 | 0.00 | 0.00 | 0.00 | 57 | 1010.8 |
| 20260905102453 | 26 | 231 | 0.0 | 11.3 | 0.00 | 0.00 | 0.00 | 56 | 1010.8 |
| 20260905101955 | 26 | 218 | 0.0 | 12.9 | 0.00 | 0.00 | 0.00 | 55 | 1010.8 |
| 20260905101457 | 26 | 214 | 6.4 | 12.9 | 0.00 | 0.00 | 0.00 | 55 | 1010.8 |